Regional Weather Roundup
Issued by NWS

Home | Current Version | Previous Version | Graphics & Text | Print | Product List | Glossary Off
Versions: 1 2 3 4 5 6 7 8 9 10 11 12 13 14 15 16 17 18 19 20 21 22 23 24 25 26 27 28 29 30 31 32 33 34 35 36 37 38 39 40 41 42 43 44 45 46 47 48 49 50

000
ASUS45 KPSR 051910
RWRAZ

ARIZONA REGIONAL HOURLY WEATHER ROUNDUP
NATIONAL WEATHER SERVICE PHOENIX AZ
1200 PM MST TUE MAY 05 2015

NOTE: FAIR INDICATES FEW OR NO CLOUDS BELOW 12,000 FEET WITH NO
SIGNIFICANT WEATHER AND/OR OBSTRUCTIONS TO VISIBILITY.

AZZ001>003-036-052000-
NORTHWEST ARIZONA

CITY           SKY/WX    TMP DP  RH WIND       PRES   REMARKS
BULLHEAD CITY  SUNNY     79  50  36 S9        29.85F
KINGMAN        MOSUNNY   72  46  39 SW15G24   29.93F
$$

AZZ004>008-015-016-018-052000-
NORTH CENTRAL ARIZONA

CITY           SKY/WX    TMP DP  RH WIND       PRES   REMARKS
GRAND CANYON   CLOUDY    52  42  69 W12G22    30.00F
WILLIAMS       HVY RAIN  45  43  93 CALM      30.10S VSB 1
PRESCOTT       LGT RAIN  58  43  57 NW8G16    30.00F
FLAGSTAFF      LGT RAIN  49  45  86 SW8       30.02F
PAYSON         PTSUNNY   57  46  67 SW7       30.02F
PAGE           PTSUNNY   69  46  43 N7        29.85F
$$

AZZ009>014-017-052000-
NORTHEAST ARIZONA

CITY           SKY/WX    TMP DP  RH WIND       PRES   REMARKS
WINSLOW        CLOUDY    62  43  49 W15G26    29.93F
SAINT JOHNS    CLOUDY    57  43  59 NW17      29.96F
WINDOW ROCK    PTSUNNY   57  43  59 S8G20     29.96F
SHOW LOW       MOSUNNY   50  43  76 SW22G30   30.03F
$$

AZZ023-052000-
GREATER PHOENIX AREA

CITY           SKY/WX    TMP DP  RH WIND       PRES   REMARKS
PHOENIX        MOSUNNY   77  50  38 W12       29.88F
GLENDALE       MOSUNNY   79  50  36 S8        29.91F
LUKE AFB       SUNNY     77  50  39 VRB3      29.88F
DEER VALLEY    CLOUDY    72  51  47 S7        29.90S
SCOTTSDALE     PTSUNNY   75  50  41 NW3       29.92F
MESA-FALCON    PTSUNNY   75  46  35 SW12      29.90F
MESA-GATEWAY   MOSUNNY   75  50  41 SW9       29.92F
CHANDLER       PTSUNNY   77  48  36 S9        29.90F
$$

AZZ027-028-052000-
SOUTHWEST MARICOPA COUNTY AND PINAL COUNTY

CITY           SKY/WX    TMP DP  RH WIND       PRES   REMARKS
CASA GRANDE    SUNNY     77  46  33 S7        29.90F
GILA BEND      MOSUNNY   78  50  36 VRB2      29.87F
$$

AZZ503-504-507>509-052000-
SOUTHEAST ARIZONA

CITY           SKY/WX    TMP DP  RH WIND       PRES   REMARKS
TUCSON         MOSUNNY   75  44  33 W6        29.96F
DAVIS-MONTHAN  MOSUNNY   74  46  36 VRB3      29.94F
NOGALES        MOSUNNY   74  37  26 W14G22    29.99F
SIERRA VISTA   MOSUNNY   71  29  21 W18G24    30.02S
DOUGLAS        PTSUNNY   72  36  26 SW12      29.98F
SAFFORD        MOSUNNY   74  44  34 VRB7G17   29.93F
$$

AZZ020-021-025-026-031-052000-
SOUTHWEST ARIZONA

CITY           SKY/WX    TMP DP  RH WIND       PRES   REMARKS
YUMA           MOSUNNY   82  53  36 SW7       29.85F
$$

CAZ031-033-041-043-047-048-061-052000-
SOUTHERN CALIFORNIA

CITY           SKY/WX    TMP DP  RH WIND       PRES   REMARKS
DOWNTOWN L.A.  CLOUDY    65  50  58 VRB5      29.98F
L.A. AIRPORT   PTSUNNY   63  50  62 W12       30.00F
SAN DIEGO      PTSUNNY   65  47  52 SW8       30.01F
BURBANK        CLOUDY    63  47  55 SE6       29.98F
ONTARIO        CLOUDY    65  46  50 W6        29.97F
RIVERSIDE      PTSUNNY   65  47  52 VRB5      29.97F
PALM SPRINGS   SUNNY     80  43  26 N7        29.87F
EL CENTRO NAS  MOSUNNY   83  38  20 VRB7      29.86F
IMPERIAL       SUNNY     82  39  21 S8        29.84F
BLYTHE         SUNNY     79  53  40 S9        29.85F
NEEDLES        SUNNY     82  47  29 SW13      29.84F
$$

NVZ020-UTZ003-052000-
SOUTHERN NEVADA-UTAH

CITY           SKY/WX    TMP DP  RH WIND       PRES   REMARKS
LAS VEGAS      MOSUNNY   79  38  22 VRB7      29.80F
SALT LAKE CITY CLOUDY    63  46  54 W10       29.84F
$$

NMZ009-TXZ055-052000-
NEW MEXICO-WEST TEXAS

CITY           SKY/WX    TMP DP  RH WIND       PRES   REMARKS
ALBUQUERQUE    PTSUNNY   61  40  45 W14       29.93F
EL PASO        MOSUNNY   73  36  25 W22G29    29.94F
$$


........................KEY........................
SKY/WX - SKY CONDITION/WEATHER
TMP    - TEMPERATURE IN FAHRENHEIT
DP     - DEW POINT IN FAHRENHEIT
RH     - RELATIVE HUMIDITY IN PERCENT
WIND   - DIRECTION AND SPEED IN MILES PER HOUR (MPH)
VRB    - VARIABLE WIND DIRECTION
PRES   - MEAN SEA LEVEL PRESSURE IN INCHES OF MERCURY
         F - FALLING PRESSURE   R - RISING PRESSURE
         S - STEADY PRESSURE
VSB    - VISIBILITY IN MILES
HX     - HEAT INDEX IN FAHRENHEIT
WCI    - WIND CHILL INDEX IN FAHRENHEIT
TC     - TEMPERATURE IN CELSIUS WHICH IS ALSO KNOWN AS
         TEMPERATURE IN CENTIGRADE
AFB    - AIR FORCE BASE
         LUKE AFB IS LUKE AIR FORCE BASE
         DAVIS-MONTHAN IS DAVIS-MONTHAN AIR FORCE BASE
NAS    - NAVAL AIR STATION
         EL CENTRO NAS IS EL CENTRO NAVAL AIR STATION
N/A    - NOT AVAILABLE



USA.gov is the U.S. government's official web portal to all federal, state and local government web resources and services.